Weather History for Joplin, MO

Change the Weather History Date:

Sunday, July 28, 2013

  Actual Average Record
Temperature  
Mean Temperature 66 °F 81 °F  
Max Temperature 70 °F 91 °F 104 °F (2011)
Min Temperature 62 °F 70 °F 56 °F (2005)
Degree Days  
Heating Degree Days 0 0  
Month to date heating degree days 0 0  
Since 1 June heating degree days 12 5  
Since 1 July heating degree days 0 0  
Cooling Degree Days 1 16  
Month to date cooling degree days 370 427  
Year to date cooling degree days 837 925  
Since 1 June cooling degree days 693 745  
Growing Degree Days 16 (Base 50)    
Moisture  
Dew Point 62 °F    
Average Humidity 87    
Maximum Humidity 93    
Minimum Humidity 81    
Precipitation  
Precipitation 0.11 in 0.11 in 1.43 in (2006)
Month to date precipitation 0.70 3.51  
Year to date precipitation 28.48 27.32  
Snow  
Snow 0.00 in - - ()
Month to date snowfall 0.0  
Since 1 June snowfall 0.0  
Since 1 July snowfall 0.0  
Snow Depth 0.00 in    
Sea Level Pressure  
Sea Level Pressure 30.04 in    
Wind  
Wind Speed 1 mph (ENE)    
Max Wind Speed 8 mph    
Max Gust Speed -    
Visibility 10 miles    
Events Rain    
T = Trace of Precipitation, MM = Missing Value Source: NWS Daily Summary

Daily Weather History Graph

Daily Weather History Graph

Search for Another Location

Airport:

Trip Planner

Search our weather history database for the weather conditions in past years. The results will help you decide how hot, cold, wet, or windy it might be!

Date:

Astronomy

Jul. 28, 2013 Rise Set
Actual Time 6:19 AM CDT 8:28 PM CDT
Civil Twilight 5:50 AM CDT 8:57 PM CDT
Nautical Twilight 5:15 AM CDT 9:33 PM CDT
Astronomical Twilight 4:36 AM CDT 10:11 PM CDT
Moon No Moon Rise 12:52 PM CDT (7/28)
Length of Visible Light 15h 06m
Length of Day
14h 08m
Waning Gibbous, 60% of the Moon is Illuminated
Jul 28
Waning Gibbous
Jul 29
Last Quarter
Aug 6
New
Aug 14
First Quarter
Aug 20
Full

Hourly Weather History & Observations

Time (CDT) Temp. Dew Point Humidity Pressure Visibility Wind Dir Wind Speed Gust Speed Precip Events Conditions
12:53 AM 63.0 °F 57.9 °F 84% 30.01 in 10.0 mi Calm Calm - N/A   Clear
1:53 AM 64.0 °F 59.0 °F 84% 30.02 in 10.0 mi ENE 3.5 mph - N/A   Overcast
2:53 AM 64.0 °F 59.0 °F 84% 30.02 in 10.0 mi Calm Calm - N/A   Overcast
3:53 AM 63.0 °F 60.1 °F 90% 30.01 in 10.0 mi Calm Calm - N/A   Overcast
4:53 AM 63.0 °F 59.0 °F 87% 30.02 in 10.0 mi Calm Calm - N/A   Partly Cloudy
5:53 AM 63.0 °F 59.0 °F 87% 30.04 in 10.0 mi Calm Calm - N/A   Scattered Clouds
6:53 AM 62.1 °F 60.1 °F 93% 30.05 in 10.0 mi Variable 3.5 mph - 0.00 in   Mostly Cloudy
7:53 AM 63.0 °F 60.1 °F 90% 30.02 in 10.0 mi Variable 5.8 mph - 0.02 in Rain Light Rain
8:53 AM 64.0 °F 62.1 °F 93% 30.04 in 10.0 mi Calm Calm - 0.01 in Rain Light Rain
9:53 AM 64.9 °F 62.1 °F 90% 30.02 in 10.0 mi Variable 3.5 mph - 0.00 in   Overcast
10:53 AM 68.0 °F 62.1 °F 81% 30.05 in 10.0 mi Calm Calm - 0.00 in   Overcast
11:53 AM 66.0 °F 63.0 °F 90% 30.06 in 10.0 mi Variable 3.5 mph - 0.01 in Rain Light Rain
12:53 PM 68.0 °F 62.1 °F 81% 30.06 in 10.0 mi Variable 4.6 mph - 0.00 in   Overcast
1:53 PM 69.1 °F 62.1 °F 78% 30.04 in 10.0 mi Variable 4.6 mph - 0.00 in Rain Light Rain
2:53 PM 69.1 °F 62.1 °F 78% 30.06 in 10.0 mi Calm Calm - 0.00 in   Overcast
3:53 PM 69.1 °F 62.1 °F 78% 30.06 in 10.0 mi Calm Calm - 0.00 in Rain Light Rain
4:53 PM 66.9 °F 64.9 °F 93% 30.05 in 10.0 mi Variable 3.5 mph - 0.03 in Rain Light Rain
5:53 PM 66.9 °F 64.0 °F 90% 30.04 in 10.0 mi Variable 3.5 mph - 0.02 in Rain Light Rain
6:53 PM 66.9 °F 64.0 °F 90% 30.03 in 10.0 mi North - - 0.01 in Rain Light Rain
7:53 PM 66.0 °F 63.0 °F 90% 30.03 in 10.0 mi Calm Calm - 0.00 in   Scattered Clouds
8:53 PM 66.0 °F 64.0 °F 93% 30.03 in 10.0 mi Calm Calm - N/A   Partly Cloudy
9:53 PM 66.0 °F 64.0 °F 93% 30.04 in 10.0 mi East 5.8 mph - 0.01 in Rain Light Rain
10:53 PM 66.0 °F 64.0 °F 93% 30.06 in 10.0 mi Calm Calm - 0.00 in   Clear
11:53 PM 66.0 °F 64.0 °F 93% 30.05 in 10.0 mi East 3.5 mph - N/A   Clear